Regional Weather Roundup
Issued by NWS

Home | Current Version | Previous Version | Graphics & Text | Print | Product List | Glossary On
Versions: 1 2 3 4 5 6 7 8 9 10 11 12 13 14 15 16 17 18 19 20 21 22 23 24 25 26 27 28 29 30 31 32 33 34 35 36 37 38 39 40 41 42 43 44 45 46 47 48 49 50
000
ASUS44 KMEG 221700
RWRTN
TENNESSEE HOURLY STATE WEATHER ROUNDUP
NATIONAL WEATHER SERVICE MEMPHIS TN
1200 PM CDT WED MAR 22 2017

TNZ002-004-019-021-049-052-054-088>092-221800-
WEST TENNESSEE

CITY           SKY/WX    TMP DP  RH WIND       PRES   REMARKS
MEMPHIS INTL   PTSUNNY   48  43  82 NE10      30.33R
NWS MEMPHIS      N/A     53 N/A N/A MISG        N/A
JACKSON        PTSUNNY   56  35  45 NE9       30.32S
DYERSBURG      SUNNY     53  33  46 NE16G23   30.35R
PARIS          SUNNY     48  25  40 NE13      30.36F
$$

TNZ008-025-027-028-033-062-065-066-221800-
NORTH MIDDLE TENNESSEE

CITY           SKY/WX    TMP DP  RH WIND       PRES   REMARKS
NASHVILLE      CLOUDY    52  23  32 N18       30.35F
CLARKSVILLE    PTSUNNY   50  26  39 NE13      30.39S
SMYRNA         CLOUDY    54  27  35 NE14      30.35S
CROSSVILLE     MOSUNNY   49  22  34 N8G20     30.29S
$$

TNZ061-075-076-078-094-096-097-221800-
SOUTH MIDDLE TENNESSEE

CITY           SKY/WX    TMP DP  RH WIND       PRES   REMARKS
TULLAHOMA      SUNNY     52  21  30 N12       30.29R
WINCHESTER     SUNNY     52  34  50 N12       30.29S
COLUMBIA       SUNNY     52  28  40 N12       30.31S
SHELBYVILLE    SUNNY     54  34  47 N10       30.32S
$$

TNZ017-018-042-046-047-221800-
NORTHEAST TENNESSEE

CITY           SKY/WX    TMP DP  RH WIND       PRES   REMARKS
TRI CITIES     MOSUNNY   51  22  31 NW12      30.27S
$$

TNZ012-013-036-069-073-074-221800-
CENTRAL EAST TENNESSEE

CITY           SKY/WX    TMP DP  RH WIND       PRES   REMARKS
KNOXVILLE      PTSUNNY   55  22  27 N7G21     30.26S
OAK RIDGE      SUNNY     56  20  24 VRB5      30.30S
GATLINBURG     SUNNY     55  28  35 N8        30.26S
$$

TNZ083-085-099-221800-
SOUTHEAST TENNESSEE

CITY           SKY/WX    TMP DP  RH WIND       PRES   REMARKS
CHATTANOOGA    CLOUDY    57  27  31 N16       30.26R
$$

SKY/WX REPORTED AS FAIR MEANS FEW OR NO CLOUDS BELOW
12 THOUSAND FEET.





USA.gov is the U.S. government's official web portal to all federal, state and local government web resources and services.